Regional Weather Roundup
Issued by NWS

Home | Current Version | Previous Version | Graphics & Text | Print | Product List | Glossary On
Versions: 1 2 3 4 5 6 7 8 9 10 11 12 13 14 15 16 17 18 19 20 21 22 23 24 25 26 27 28 29 30 31 32 33 34 35 36 37 38 39 40 41 42 43 44 45 46 47 48 49 50
000
ASUS45 KCYS 280910
RWRWY

WYOMING REGIONAL WEATHER ROUNDUP
NATIONAL WEATHER SERVICE CHEYENNE WY
200 AM MST SAT FEB 28 2015

NOTE:  "FAIR" INDICATES FEW OR NO CLOUDS BELOW 12,000 FEET
WITH NO SIGNIFICANT WEATHER AND/OR OBSTRUCTIONS TO VISIBILITY.

WYZ001-281000-
YELLOWSTONE NATIONAL PARK

CITY           SKY/WX    TMP DP  RH WIND       PRES   REMARKS
LK YELLOWSTONE   N/A     -7 -12  79 NW3       29.77S
W YELLOWSTONE  NOT AVBL

$$
WYZ002>013-054>058-071-098>099-281000-
NORTHERN WYOMING

CITY           SKY/WX    TMP DP  RH WIND       PRES   REMARKS
JACKSON        MOCLDY    12  10  92 N13       29.77S WCI  -3
CODY           CLOUDY    10   9  92 NE12      29.93R WCI  -4
GREYBULL       MOCLDY    17   6  62 NW12      29.97R WCI   4
WORLAND        MOCLDY    19  14  81 CALM      29.95R
SHERIDAN       CLOUDY    12   5  73 W13       30.04R WCI  -3
BUFFALO        FAIR       9   4  80 N14G21    29.95R WCI  -7
GILLETTE       FAIR       5   2  87 CALM      29.97R
HULETT         FLURRIES  18  10  73 W3        29.97S
NEWCASTLE      FAIR      10   5  79 CALM      29.97S

$$
WYZ014>020-022>026-101>103-281000-
CENTRAL WYOMING

CITY           SKY/WX    TMP DP  RH WIND       PRES   REMARKS
BIG PINEY      LGT SNOW  16  12  84 N3        29.76R FOG
PINEDALE       LGT SNOW  10   9  92 W6        29.75S WCI   1
DUBOIS         LGT SNOW   9   5  85 W5        29.79S WCI   0
LANDER         CLOUDY    17  10  74 W5        29.88R WCI  10
RIVERTON       CLOUDY    14   8  77 SW5       29.90R WCI   6
CASPER         CLOUDY    16  11  80 N6        29.90R WCI   7
DOUGLAS        FAIR       6   1  80 NW3       29.93R

$$
WYZ021-027>030-104>119-281000-
SOUTHERN WYOMING

CITY           SKY/WX    TMP DP  RH WIND       PRES   REMARKS
EVANSTON       FAIR      18   9  68 S8        29.69R WCI   8
FORT BRIDGER   FAIR      18  13  83 N5        29.74R WCI  11
ROCK SPRINGS   FAIR      12   7  80 NE18      29.77R WCI  -6
DIXON          PTSUNNY   17   8  65 E8        29.79S WCI   7
RAWLINS        FAIR      11   5  77 NE9       29.78S WCI  -2
SARATOGA       FAIR       7   3  85 CALM      29.77S
LARAMIE        FAIR       0  -5  79 S3        29.76S
CHEYENNE       FAIR       1  -4  79 NW5       29.81S WCI  -9
TORRINGTON     FAIR       6   2  83 E9        29.95R WCI  -8
PINE BLUFFS    FAIR       3   0  85 MISG      29.90F

$$



USA.gov is the U.S. government's official web portal to all federal, state and local government web resources and services.